Weather Roundup
Issued by NWS Springfield, MO

Home | Current Version | Previous Version | Text Only | Print | Product List | Glossary On
Versions: 1 2 3 4 5 6 7 8 9 10 11 12 13 14 15 16 17 18 19 20 21 22 23 24 25 26 27 28 29 30 31 32 33 34 35 36 37 38 39 40 41 42 43 44 45 46 47 48 49 50
000
NZUS99 KSGF 230257
HRRSGF

HOURLY WEATHER
NATIONAL WEATHER SERVICE SPRINGFIELD MO
1000 PM CDT MON MAY 22 2017

......SGF CWA......

CITY           SKY/WX    TMP DP  RH WIND       PRES   REMARKS
SPRINGFIELD    CLOUDY    66  51  58 S7        29.93R
JOPLIN         CLOUDY    65  57  75 S5        29.92S
WEST PLAINS    CLOUDY    63  52  67 CALM      29.96F
ROLLA          CLOUDY    62  54  74 SE6       29.93F

......SURROUNDING SGF CWA......

CITY           SKY/WX    TMP DP  RH WIND       PRES   REMARKS
CHANUTE        CLOUDY    64  57  78 SW3       29.91F
PARSONS        CLOUDY    62  58  86 SE3       29.92F
COFFEYVILLE    CLOUDY    64  60  87 SW5       29.91F
EMPORIA        CLOUDY    60  59  96 N3        29.93R
HARRISON AR    CLOUDY    60  52  74 VRB5      29.96R

......KANSAS AND MISSOURI......

CITY           SKY/WX    TMP DP  RH WIND       PRES   REMARKS
KANSAS CTY INT CLOUDY    58  57  97 CALM      29.93R
SEDALIA        MOCLDY    58  57  97 E6        29.94F
ST JOSEPH      PTCLDY    57  57 100 S8        29.91F
ST LOUIS       CLOUDY    72  48  42 S7        29.95R
WICHITA        PTCLDY    56  56 100 CALM      29.93R
TOPEKA         MOCLDY    59  59 100 CALM      29.93S
OLATHE         LGT RAIN  57  57 100 SE6       29.93R

......TENNESSEE......

CITY           SKY/WX    TMP DP  RH WIND       PRES   REMARKS
MEMPHIS        NOT AVBL
NASHVILLE      CLOUDY    67  55  65 NE7       29.97F

......ARKANSAS.......

CITY           SKY/WX    TMP DP  RH WIND       PRES   REMARKS
FAYETTEVILLE   CLOUDY    60  57  89 S5        29.94S
FT SMITH       MOCLDY    71  51  49 E5        29.92S
LITTLE ROCK    CLOUDY    64  58  80 S3        29.95S

......OKLAHOMA.......

CITY           SKY/WX    TMP DP  RH WIND       PRES   REMARKS
TULSA          MOCLDY    64  59  83 W7        29.94S
PONCA CITY     CLOUDY    61  57  87 CALM      29.94S
MCALESTER      CLOUDY    66  62  87 NE3       29.95R
OKLAHOMA CITY  LGT RAIN  60  58  92 N8        29.98R

......IOWA............

CITY           SKY/WX    TMP DP  RH WIND       PRES   REMARKS
DES MOINES     NOT AVBL
QUAD CITIES    CLOUDY    60  54  80 SW10      29.88S

......ILLINOIS........

CITY           SKY/WX    TMP DP  RH WIND       PRES   REMARKS
QUINCY         NOT AVBL
CHICAGO        CLOUDY    61  53  75 SW15G22   29.91S



USA.gov is the U.S. government's official web portal to all federal, state and local government web resources and services.